[[{"header":{"parameterUnit":"m.s-1","parameterCategory":1,"la1":30.2991,"la2":30.254,"lo1":-89.0895,"lo2":-89.0444,"dy":0.0017,"dx":0.0017,"nx":28,"ny":28,"refTime":"2025-04-15T03:00:00:Z","depth":0,"parameterNumber":2,"parameterNumberName":"U-component_of_WINDS"},"data":[0,0,0,0,0,0,0,0,0,0,0,0,0,0,0,0,0,0,0,0,0,0,0,0,0,0,0,0,0,0,0,0,0,0,0,0,0,0,0,0,0,0,0,0,0,0,0,0,0,0,0,0,0,0,0,0,0,0,0.9662,0.9662,0,0.9746,0.9747,0.9748,0.9738,0.9736,0.9735,0.9733,0.9828,0.9832,0.9836,0,0,0,0,0,0,0,0,0,0,0,0,0,0.9499,0.9502,0.9661,0.9662,0.9664,0.9746,0.9747,0.9748,0.9738,0.9736,0.9734,0.9733,0.9827,0.9831,0.9836,0,0,0,0,0,0,0,0,0,0,0,0,0,0.9576,0.9503,0.9661,0.9668,0.9669,0.9746,0.9747,0.9749,0.9738,0.9736,0.9734,0.9732,0.9825,0.9831,0.9836,0.9914,0,0,0.9854,0.9856,0,0,0,0,0,0,0,0,0.9571,0.9582,0.9666,0.9668,0.9669,0.9729,0.9725,0.9804,0.9739,0.9712,0.9733,0.9731,0.9797,0.9805,0.9826,0.9918,0.9922,0.9855,0.9858,0.986,0.9862,0,0,0,0,0,0,0,0.9566,0.9578,0.9695,0.9667,0.9669,0.967,0.9678,0.974,0.9766,0.9714,0.9714,0.9724,0.9798,0.982,0.9828,0.9924,0.9854,0.9859,0.9863,0.9865,1.0087,1.0089,0,0,0,0,0,0,0.9558,0.9574,0.9692,0.9698,0.9614,0.9674,0.9684,0.9712,0.9765,0.9771,0.9725,0.9723,0.9812,0.9821,0.9831,0.9927,0.986,0.9866,0.9869,1.0085,1.0088,1.009,0,0,0,0,0,0,0.9554,0.9568,0.9689,0.9636,0.9651,0.9679,0.9711,0.9715,0.9737,0.9773,0.9779,0.9743,0.981,0.9823,0.9894,0.993,0.9868,0.9874,1.0082,1.0086,1.0089,1.0118,0,0,0,0,0,0,0.955,0.9567,0.9595,0.9636,0.9654,0.9747,0.9713,0.9718,0.9746,0.9744,0.9791,0.9797,0.981,0.9885,0.9899,0.9937,0.9878,1.0079,1.0083,1.0088,1.0114,1.0123,1.013,0,0,0,0,0,0.9544,0.9601,0.9596,0.9611,0.9688,0.9749,0.976,0.9771,0.9749,0.9779,0.9802,0.9796,0.9924,0.9892,0.9908,0.9948,1.0076,1.0082,1.0087,1.0111,1.0121,1.013,0,0,0,0,0,0,0.9565,0.9606,0.9602,0.9673,0.9707,0.9747,0.9784,0.9781,0.9824,0.982,0.9835,0.9846,0.9917,0.994,0.9904,1.0028,0.9998,1.0007,1.001,1.002,1.0027,1.0021,0.9883,0,0,0,0,0,0.9578,0.9621,0.9656,0.9716,0.9733,0.9756,0.9783,0.9788,0.9826,0.9841,0.987,0.9908,0.9958,0.999,1.0037,1.0117,1.0129,1.0153,1.0161,1.0167,1.0175,1.0222,1.0234,1.0108,1.0108,1.0108,0,0,0.9605,0.9633,0.966,0.9721,0.9748,0.9796,0.9768,0.9819,0.9856,0.985,0.9917,0.994,0.9985,1.0061,1.0096,1.0082,1.0212,1.0174,1.0179,1.0184,1.0229,1.0241,1.0251,1.0112,1.0111,1.0111,0,0,0.9679,0.9703,0.9757,0.9785,0.9826,0.9841,0.9854,0.9895,0.9909,0.9976,0.9973,1.0019,1.0102,1.0135,1.0162,1.0251,1.0247,1.0266,1.0307,1.0352,1.0362,1.0371,1.0405,1.0416,1.0273,1.0274,1.0274,0,0.9709,0.9777,0.9785,0.9837,0.9865,0.986,0.9916,0.9944,0.9999,1.002,1.0003,1.0109,1.0139,1.0224,1.0245,1.0267,1.0285,1.0261,1.0359,1.0368,1.0377,1.0409,1.0422,1.0276,1.0275,1.0275,1.0275,0,0.9813,0.9861,0.9899,0.9951,0.9984,1.0037,1.0056,1.0089,1.0092,1.011,1.0181,1.0216,1.0272,1.0292,1.0296,1.0379,1.0369,1.0355,1.0326,1.0391,1.0422,1.0434,1.0279,1.0278,1.0277,1.0277,0,0,0.9902,0.9958,0.9972,0.9996,1.0042,1.0081,1.0136,1.0188,1.0217,1.0256,1.0304,1.0376,1.0364,1.0396,1.0404,1.0444,1.0514,1.0426,1.0427,1.0443,1.061,1.0621,1.0635,1.0512,1.0514,1.0516,1.0607,0,0.9982,1.0076,1.0085,1.0171,1.0217,1.0214,1.0262,1.0298,1.0316,1.0361,1.0383,1.0434,1.0413,1.0433,1.0472,1.0497,1.0548,1.0491,1.056,1.0563,1.055,1.065,1.0661,1.0745,1.0619,1.0621,1.0622,0,1.0087,1.0127,1.0217,1.0258,1.0278,1.0321,1.037,1.0411,1.0453,1.0464,1.0499,1.0503,1.0563,1.053,1.0615,1.0576,1.0605,1.0623,1.0626,1.0634,1.0597,1.0663,1.0772,1.0785,1.0641,1.0639,1.0638,0,1.0145,1.0222,1.0286,1.0307,1.0356,1.0387,1.0409,1.0448,1.0479,1.0524,1.0545,1.0596,1.0625,1.0666,1.0685,1.0659,1.077,1.0738,1.0784,1.0783,1.0808,1.0806,1.0925,1.0824,1.0824,1.0824,1.0824,0,1.0234,1.0289,1.0313,1.0353,1.0416,1.0428,1.0492,1.0513,1.0548,1.0594,1.0595,1.0639,1.066,1.0709,1.0724,1.0794,1.0806,1.0819,1.0823,1.082,1.0819,1.0841,1.0836,1.0827,1.0826,1.0826,1.0825,0,1.031,1.0328,1.0398,1.0438,1.045,1.0495,1.0532,1.0572,1.059,1.0649,1.0664,1.0694,1.0751,1.0773,1.0843,1.0854,1.0935,1.0933,1.092,1.0921,1.0966,1.0962,1.1104,1.1125,1.1009,1.101,1.1011,0,1.0366,1.0408,1.0453,1.0483,1.0506,1.0554,1.0586,1.0601,1.0634,1.0685,1.072,1.0776,1.0822,1.0914,1.0944,1.0999,1.1,1.1046,1.1008,1.1004,1.1003,1.1001,1.1006,1.1053,1.1054,1.1055,1.1056,0,1.0464,1.0471,1.0515,1.0563,1.06,1.064,1.0678,1.0703,1.0724,1.0763,1.082,1.0855,1.0926,1.0984,1.104,1.1066,1.1067,1.1067,1.1081,1.1079,1.1071,1.1078,1.0941,1.1064,1.1064,1.1063,1.1062,1.1062,1.0533,1.0571,1.0609,1.0659,1.0689,1.0726,1.0766,1.0789,1.0836,1.0894,1.09,1.0963,1.1006,1.1081,1.111,1.1161,1.1149,1.1169,1.1174,1.1179,1.1183,1.1061,1.1171,1.1171,1.1171,1.1171,1.117,0,1.0632,1.0657,1.0703,1.0756,1.0796,1.0789,1.0832,1.0867,1.0921,1.096,1.1005,1.1072,1.1128,1.1163,1.122,1.1254,1.1256,1.1269,1.1267,1.1274,1.1189,1.1172,1.1267,1.1267,1.1267,1.1267,1.1267,1.1267,1.0689,1.0754,1.0766,1.0848,1.0873,1.0932,1.0957,1.0992,1.1023,1.1098,1.1143,1.1164,1.1203,1.1263,1.1315,1.1324,1.1346,1.1361,1.1369,1.129,1.128,1.127,1.1255,1.1365,1.1365,1.145,1.1451,1.1452]},{"header":{"parameterUnit":"m.s-1","parameterCategory":1,"la1":30.2991,"la2":30.254,"lo1":-89.0895,"lo2":-89.0444,"dy":0.0017,"dx":0.0017,"nx":28,"ny":28,"refTime":"2025-04-15T03:00:00:Z","depth":0,"parameterNumber":3,"parameterNumberName":"V-component_of_WINDS"},"data":[0,0,0,0,0,0,0,0,0,0,0,0,0,0,0,0,0,0,0,0,0,0,0,0,0,0,0,0,0,0,0,0,0,0,0,0,0,0,0,0,0,0,0,0,0,0,0,0,0,0,0,0,0,0,0,0,0,0,4.9917,4.9918,0,4.999,4.999,4.9991,4.996,4.9959,4.9957,4.9955,5.0021,5.0024,5.0027,0,0,0,0,0,0,0,0,0,0,0,0,0,4.9743,4.9746,4.9917,4.9918,4.9919,4.9989,4.999,4.9991,4.9961,4.9959,4.9957,4.9955,5.002,5.0024,5.0028,0,0,0,0,0,0,0,0,0,0,0,0,0,4.9817,4.9747,4.9916,4.9912,4.9912,4.9989,4.999,4.9992,4.9961,4.9959,4.9956,4.9954,5.0018,5.0023,5.0028,5.0111,0,0,5.0044,5.0046,0,0,0,0,0,0,0,0,4.9813,4.9823,4.9912,4.9912,4.9913,4.9964,4.9953,5.0031,4.9962,4.9942,4.9955,4.9952,5.0003,5.0009,5.0028,5.0114,5.0117,5.0044,5.0047,5.0049,5.0051,0,0,0,0,0,0,0,4.9808,4.982,4.9945,4.9913,4.9914,4.9904,4.9911,4.9968,4.9986,4.9944,4.9942,4.9951,5.0003,5.0024,5.003,5.0118,5.0044,5.0048,5.0051,5.0053,5.0276,5.0279,0,0,0,0,0,0,4.9804,4.9816,4.9943,4.9947,4.9856,4.9909,4.9917,4.995,4.9985,4.9989,4.9954,4.995,5.0016,5.0024,5.0032,5.0132,5.0049,5.0054,5.0057,5.0273,5.0277,5.028,0,0,0,0,0,0,4.98,4.9815,4.994,4.9881,4.9896,4.9915,4.9951,4.9953,4.9973,4.9993,4.9995,4.9972,5.0015,5.0025,5.0092,5.0134,5.0056,5.0061,5.027,5.0274,5.0278,5.0333,0,0,0,0,0,0,4.9795,4.9814,4.9848,4.9882,4.99,5.0002,4.9954,4.9956,4.9983,4.9979,5.0011,5.0013,5.0013,5.0085,5.0098,5.0139,5.0065,5.0266,5.0272,5.0277,5.0328,5.0339,5.0348,0,0,0,0,0,4.9789,4.9858,4.985,4.9865,4.9942,5.0004,5.0014,5.0015,4.9987,5.0019,5.0032,5.0012,5.0128,5.0092,5.0106,5.015,5.0263,5.027,5.0276,5.0323,5.0337,5.0348,0,0,0,0,0,0,4.9823,4.9862,4.9853,4.9936,4.9968,4.9999,5.004,5.0029,5.0067,5.0061,5.0058,5.0065,5.0136,5.0149,5.011,5.0233,5.0191,5.02,5.0221,5.0235,5.0245,5.024,5.0069,0,0,0,0,0,4.9841,4.9892,4.9921,4.9991,5.0008,5.0022,5.0048,5.0047,5.0078,5.0091,5.0108,5.0137,5.018,5.0208,5.0248,5.0329,5.0336,5.0366,5.0377,5.0385,5.0393,5.0438,5.0452,5.0301,5.0301,5.0301,0,0,4.9877,4.9905,4.9936,4.9999,5.0023,5.0073,5.0033,5.0086,5.0123,5.0098,5.0164,5.0178,5.021,5.0285,5.0319,5.0299,5.0437,5.0393,5.04,5.0404,5.0446,5.0461,5.0473,5.0306,5.0305,5.0304,0,0,4.9968,4.9995,5.0057,5.0083,5.0122,5.0131,5.0146,5.018,5.019,5.0257,5.024,5.0281,5.0355,5.0379,5.04,5.0503,5.0487,5.0516,5.057,5.0614,5.0626,5.0636,5.0673,5.0687,5.0524,5.0524,5.0524,0,5.0007,5.0085,5.0089,5.0146,5.0173,5.0157,5.0219,5.0243,5.0291,5.031,5.0287,5.0381,5.04,5.0482,5.0508,5.0525,5.0541,5.0512,5.0624,5.0635,5.0645,5.068,5.0694,5.0528,5.0527,5.0527,5.0527,0,5.0131,5.0185,5.023,5.0282,5.0315,5.0373,5.0384,5.0416,5.0412,5.0423,5.0492,5.0516,5.0561,5.058,5.0575,5.0661,5.0648,5.0625,5.0582,5.0662,5.0696,5.0709,5.0533,5.0531,5.053,5.053,0,0,5.0245,5.0301,5.0317,5.0342,5.0384,5.0425,5.0482,5.053,5.0558,5.0592,5.0639,5.0703,5.0683,5.0708,5.0705,5.0744,5.0825,5.0716,5.0717,5.0736,5.0922,5.0939,5.0955,5.0814,5.0817,5.0819,5.0919,0,5.034,5.0445,5.0451,5.0545,5.0595,5.0581,5.0631,5.0661,5.0673,5.0715,5.0726,5.0772,5.0742,5.0757,5.0794,5.0807,5.0862,5.08,5.0857,5.0859,5.085,5.0972,5.0991,5.1084,5.0932,5.0934,5.0936,0,5.0465,5.0508,5.0609,5.0647,5.0667,5.0713,5.0758,5.0799,5.0832,5.0838,5.0868,5.086,5.0917,5.0874,5.0951,5.0909,5.0932,5.0942,5.0946,5.0951,5.0902,5.0981,5.1114,5.1129,5.0956,5.0955,5.0953,0,5.0539,5.0621,5.0693,5.0714,5.0759,5.0792,5.0811,5.0843,5.0872,5.0911,5.0929,5.0973,5.0996,5.1029,5.1033,5.1001,5.1111,5.1068,5.1116,5.1116,5.114,5.1139,5.1279,5.1155,5.1154,5.1154,5.1154,0,5.0645,5.0707,5.0727,5.0771,5.084,5.0845,5.0912,5.0929,5.0958,5.1003,5.0991,5.1033,5.1036,5.1078,5.1081,5.1145,5.1155,5.1161,5.1161,5.1162,5.1162,5.1177,5.1171,5.1158,5.1157,5.1156,5.1156,0,5.0739,5.0755,5.0832,5.0871,5.0882,5.0931,5.0962,5.1003,5.1015,5.1072,5.1085,5.1103,5.1152,5.116,5.1216,5.1218,5.1296,5.1289,5.1286,5.1285,5.1334,5.1329,5.149,5.1511,5.1372,5.1373,5.1375,0,5.0806,5.0855,5.09,5.0931,5.0954,5.1004,5.1035,5.1042,5.1074,5.1117,5.1153,5.1202,5.1242,5.1321,5.1337,5.1381,5.1375,5.1428,5.1381,5.1381,5.1376,5.1374,5.1379,5.1437,5.1438,5.1439,5.144,0,5.0924,5.093,5.0977,5.1028,5.1067,5.1106,5.1142,5.1168,5.1179,5.1215,5.1268,5.1299,5.136,5.1408,5.1452,5.1469,5.1457,5.1456,5.1469,5.1471,5.1468,5.1471,5.1311,5.1452,5.145,5.145,5.1449,5.1449,5.1006,5.105,5.1089,5.1142,5.1172,5.1207,5.1248,5.1267,5.1312,5.1365,5.1365,5.1423,5.1455,5.1513,5.1534,5.1577,5.156,5.1579,5.1584,5.1589,5.1595,5.1461,5.1585,5.1585,5.1584,5.1584,5.1584,0,5.1124,5.115,5.1199,5.1253,5.1295,5.1283,5.1324,5.1358,5.1411,5.1444,5.1485,5.1546,5.1593,5.1614,5.1661,5.1692,5.1687,5.1704,5.1701,5.1706,5.1607,5.1591,5.1707,5.1707,5.1707,5.1707,5.1707,5.1707,5.119,5.1263,5.1274,5.1361,5.1385,5.1445,5.1469,5.1501,5.1528,5.1598,5.164,5.1654,5.1682,5.1731,5.1773,5.1778,5.1796,5.1815,5.1817,5.1725,5.1712,5.1701,5.1686,5.1819,5.1819,5.1912,5.1913,5.1913]}]]